Torna al catalogo

FREGAT DEB

AttivoUNKNOWN
NORAD 46006·DEBRIS·🇷🇺 Russia

Lanciato Jul 18, 2011 da Baikonur Cosmodrome

Loading…

Prossimi Passaggi (prossime 24 ore)

TLE

AggiornatoSource: Space-Track

Epoca: Sep 14, 2026, 04:35 UTC

1 46006U 11037HH  26257.19107571  .00011190  00000-0  65397-3 0  9996
2 46006  51.3970 188.4528 1575418 141.3312 231.1679 12.21694127261716

Traccia FREGAT DEB in tempo reale con AllMySat

Download on the App Store